When you browse on this site, cookies collect data to enhance your experience and personalize the content and advertising you see.
Visit our Privacy Policy to learn more. By continuing to use the site, you agree to this use of cookies and data.
  • In Italy
  • List of Countries
  • For 7 days
  • Water Temperature
  • Satellite Maps
  • Weather Map
  • Weather Widgets
  • user-avatar
    Login

    Hourly Weather Qala i Naw

    Today, 22 March, Friday

    Time Temperature Precipitation Wind Pressure Humidity
    00:00 +10°C° 0.1 mm 1 mps 681 mmHg 80%
    01:00 +10°C° 0.1 mm 1 mps 681 mmHg 81%
    02:00 +10°C° 0 mm 1 mps 681 mmHg 82%
    03:00 +9°C° 0 mm 1 mps 681 mmHg 83%
    04:00 +9°C° 0 mm 1 mps 681 mmHg 83%
    05:00 +9°C° 0 mm 1 mps 681 mmHg 81%
    06:00 +10°C° 0 mm 1 mps 681 mmHg 78%
    07:00 +10°C° 0 mm 1 mps 681 mmHg 76%
    08:00 +10°C° 0.1 mm 2 mps 681 mmHg 72%
    09:00 +12°C° 0.1 mm 2 mps 681 mmHg 69%
    10:00 +12°C° 0.1 mm 2 mps 681 mmHg 66%
    11:00 +12°C° 0.2 mm 3 mps 681 mmHg 66%
    12:00 +13°C° 0.2 mm 3 mps 681 mmHg 66%
    13:00 +13°C° 0.2 mm 4 mps 681 mmHg 66%
    14:00 +13°C° 0.8 mm 4 mps 680 mmHg 70%
    15:00 +12°C° 0.8 mm 3 mps 680 mmHg 73%
    16:00 +12°C° 0.8 mm 3 mps 680 mmHg 77%
    17:00 +12°C° 0.6 mm 3 mps 680 mmHg 81%
    18:00 +11°C° 0.6 mm 3 mps 680 mmHg 84%
    19:00 +12°C° 0.6 mm 2 mps 681 mmHg 87%
    20:00 +10°C° 0.1 mm 2 mps 681 mmHg 88%
    21:00 +10°C° 0.1 mm 2 mps 681 mmHg 89%
    22:00 +10°C° 0.1 mm 2 mps 682 mmHg 91%
    23:00 +10°C° 0 mm 2 mps 682 mmHg 91%

    Tomorrow, 23 March, Saturday

    Time Temperature Precipitation Wind Pressure Humidity
    00:00 +9°C° 0 mm 2 mps 682 mmHg 91%
    01:00 +9°C° 0 mm 2 mps 682 mmHg 92%
    02:00 +9°C° 0 mm 2 mps 682 mmHg 93%
    03:00 +8°C° 0 mm 2 mps 682 mmHg 93%
    04:00 +8°C° 0 mm 2 mps 682 mmHg 94%
    05:00 +8°C° 0 mm 2 mps 682 mmHg 94%
    06:00 +7°C° 0 mm 2 mps 683 mmHg 94%
    07:00 +7°C° 0 mm 2 mps 683 mmHg 93%
    08:00 +8°C° 0 mm 2 mps 683 mmHg 86%
    09:00 +10°C° 0 mm 2 mps 683 mmHg 79%
    10:00 +12°C° 0 mm 2 mps 683 mmHg 72%
    11:00 +13°C° 0 mm 2 mps 683 mmHg 66%
    12:00 +13°C° 0 mm 3 mps 683 mmHg 61%
    13:00 +16°C° 0 mm 3 mps 683 mmHg 55%
    14:00 +16°C° 0 mm 3 mps 683 mmHg 55%
    15:00 +15°C° 0 mm 4 mps 682 mmHg 54%
    16:00 +15°C° 0 mm 4 mps 682 mmHg 54%
    17:00 +14°C° 0 mm 3 mps 682 mmHg 57%
    18:00 +14°C° 0 mm 2 mps 682 mmHg 61%
    19:00 +13°C° 0 mm 1 mps 682 mmHg 65%
    20:00 +13°C° 0 mm 1 mps 682 mmHg 65%
    21:00 +12°C° 0 mm 1 mps 682 mmHg 66%
    22:00 +11°C° 0 mm 0 mps 682 mmHg 66%
    23:00 +12°C° 0 mm 1 mps 682 mmHg 62%

    Day after tomorrow, 24 March, Sunday

    Time Temperature Precipitation Wind Pressure Humidity
    00:00 +12°C° 0 mm 1 mps 681 mmHg 58%
    01:00 +11°C° 0 mm 1 mps 681 mmHg 54%
    02:00 +11°C° 0 mm 1 mps 681 mmHg 52%
    03:00 +11°C° 0 mm 1 mps 681 mmHg 49%
    04:00 +10°C° 0 mm 2 mps 681 mmHg 47%
    05:00 +12°C° 0 mm 2 mps 681 mmHg 46%
    06:00 +12°C° 0 mm 2 mps 681 mmHg 45%
    07:00 +12°C° 0 mm 3 mps 681 mmHg 44%
    08:00 +14°C° 0 mm 3 mps 682 mmHg 39%
    09:00 +18°C° 0 mm 3 mps 682 mmHg 33%
    10:00 +20°C° 0 mm 3 mps 682 mmHg 27%
    11:00 +21°C° 0 mm 2 mps 682 mmHg 25%
    12:00 +23°C° 0 mm 2 mps 682 mmHg 23%
    13:00 +24°C° 0 mm 1 mps 681 mmHg 20%
    14:00 +24°C° 0 mm 1 mps 681 mmHg 21%
    15:00 +24°C° 0 mm 1 mps 681 mmHg 22%
    16:00 +24°C° 0 mm 1 mps 680 mmHg 22%
    17:00 +23°C° 0 mm 2 mps 680 mmHg 28%
    18:00 +21°C° 0 mm 2 mps 680 mmHg 33%
    19:00 +19°C° 0 mm 2 mps 680 mmHg 38%
    20:00 +18°C° 0 mm 2 mps 680 mmHg 40%
    21:00 +18°C° 0 mm 2 mps 680 mmHg 42%
    22:00 +17°C° 0 mm 2 mps 680 mmHg 43%
    23:00 +17°C° 0 mm 2 mps 680 mmHg 44%

    25 March, Monday

    Time Temperature Precipitation Wind Pressure Humidity
    00:00 +17°C° 0 mm 2 mps 680 mmHg 44%
    01:00 +16°C° 0 mm 2 mps 680 mmHg 44%
    02:00 +16°C° 0.1 mm 2 mps 679 mmHg 45%
    03:00 +16°C° 0.1 mm 2 mps 679 mmHg 46%
    04:00 +16°C° 0.1 mm 2 mps 679 mmHg 47%
    05:00 +16°C° 0 mm 3 mps 679 mmHg 46%
    06:00 +15°C° 0 mm 4 mps 679 mmHg 46%
    07:00 +15°C° 0 mm 4 mps 679 mmHg 45%
    08:00 +17°C° 0 mm 5 mps 680 mmHg 40%
    09:00 +20°C° 0 mm 5 mps 681 mmHg 35%
    10:00 +23°C° 0 mm 5 mps 681 mmHg 30%
    11:00 +25°C° 0 mm 5 mps 681 mmHg 29%
    12:00 +26°C° 0 mm 6 mps 681 mmHg 27%
    13:00 +26°C° 0 mm 6 mps 681 mmHg 26%
    14:00 +26°C° 0 mm 7 mps 681 mmHg 28%
    15:00 +26°C° 0 mm 7 mps 680 mmHg 29%
    16:00 +26°C° 0 mm 8 mps 680 mmHg 30%
    17:00 +23°C° 0 mm 7 mps 680 mmHg 34%
    18:00 +22°C° 0 mm 6 mps 680 mmHg 37%
    19:00 +21°C° 0 mm 5 mps 680 mmHg 41%
    20:00 +20°C° 0 mm 5 mps 681 mmHg 41%
    21:00 +20°C° 0 mm 5 mps 681 mmHg 41%
    22:00 +20°C° 0 mm 4 mps 681 mmHg 42%
    23:00 +19°C° 0 mm 4 mps 681 mmHg 42%

    26 March, Tuesday

    Time Temperature Precipitation Wind Pressure Humidity
    00:00 +19°C° 0 mm 4 mps 681 mmHg 43%
    01:00 +18°C° 0 mm 4 mps 681 mmHg 44%
    02:00 +17°C° 0 mm 5 mps 680 mmHg 45%
    03:00 +17°C° 0 mm 5 mps 680 mmHg 45%
    04:00 +17°C° 0 mm 5 mps 680 mmHg 46%
    05:00 +17°C° 0 mm 5 mps 680 mmHg 46%
    06:00 +17°C° 0 mm 5 mps 681 mmHg 46%
    07:00 +17°C° 0 mm 5 mps 681 mmHg 46%
    08:00 +20°C° 0.1 mm 5 mps 681 mmHg 44%
    09:00 +21°C° 0.1 mm 5 mps 681 mmHg 42%
    10:00 +22°C° 0.1 mm 4 mps 682 mmHg 40%
    11:00 +23°C° 0 mm 5 mps 682 mmHg 38%
    12:00 +24°C° 0 mm 6 mps 681 mmHg 35%
    13:00 +27°C° 0 mm 7 mps 681 mmHg 33%
    14:00 +26°C° 0.1 mm 6 mps 681 mmHg 36%
    15:00 +25°C° 0.1 mm 5 mps 680 mmHg 40%
    16:00 +23°C° 0.1 mm 4 mps 680 mmHg 43%
    17:00 +22°C° 0 mm 4 mps 680 mmHg 45%
    18:00 +21°C° 0 mm 5 mps 680 mmHg 46%
    19:00 +21°C° 0 mm 5 mps 679 mmHg 48%
    20:00 +21°C° 0.1 mm 6 mps 679 mmHg 49%
    21:00 +21°C° 0.1 mm 7 mps 679 mmHg 49%
    22:00 +20°C° 0.1 mm 8 mps 679 mmHg 50%
    23:00 +20°C° 0 mm 8 mps 678 mmHg 50%

    27 March, Wednesday

    Time Temperature Precipitation Wind Pressure Humidity
    00:00 +20°C° 0 mm 7 mps 678 mmHg 50%
    01:00 +20°C° 0 mm 7 mps 678 mmHg 50%
    02:00 +18°C° 0.1 mm 7 mps 678 mmHg 50%
    03:00 +19°C° 0.1 mm 6 mps 677 mmHg 50%
    04:00 +19°C° 0.1 mm 6 mps 677 mmHg 51%
    05:00 +19°C° 0.8 mm 5 mps 678 mmHg 52%
    06:00 +19°C° 0.8 mm 5 mps 678 mmHg 53%
    07:00 +19°C° 0.8 mm 4 mps 679 mmHg 54%
    08:00 +21°C° 0.2 mm 7 mps 679 mmHg 47%
    09:00 +24°C° 0.2 mm 9 mps 680 mmHg 39%
    10:00 +27°C° 0.2 mm 11 mps 680 mmHg 31%
    11:00 +27°C° 0 mm 11 mps 680 mmHg 29%
    12:00 +28°C° 0 mm 12 mps 680 mmHg 27%
    13:00 +28°C° 0 mm 12 mps 680 mmHg 25%
    14:00 +27°C° 0 mm 11 mps 680 mmHg 31%
    15:00 +26°C° 0 mm 9 mps 680 mmHg 36%
    16:00 +23°C° 0 mm 8 mps 680 mmHg 42%
    17:00 +21°C° 0.7 mm 6 mps 681 mmHg 51%
    18:00 +19°C° 0.7 mm 4 mps 682 mmHg 60%
    19:00 +19°C° 0.7 mm 1 mps 682 mmHg 69%
    20:00 +16°C° 0 mm 2 mps 683 mmHg 73%
    21:00 +15°C° 0 mm 2 mps 683 mmHg 77%
    22:00 +13°C° 0 mm 3 mps 683 mmHg 81%
    23:00 +12°C° 0 mm 3 mps 683 mmHg 81%
    Show more